Location: Newark
(7.0858°N, 171.3717°E)
Time: 08:43:27
(UTC+00:00)

S-56A Canister/Altair - Pass Details

Date: 05 December 2020
Orbit: 633 x 2499 km, 38.9° (Epoch: 27 January)

Event Time Altitude Azimuth Distance (km) Brightness Sun altitude
Rises 14:44:17 0° 295° (WNW) 3,277 - -53.2°
Reaches altitude 10° 14:47:11 10° 284° (WNW) 2,183 - -52.6°
Maximum altitude 14:51:22 29° 223° (SW) 1,165 - -51.7°
Drops below altitude 10° 14:55:14 10° 161° (SSE) 2,005 - -50.8°
Sets 14:57:47 0° 150° (SSE) 2,961 - -50.2°
